TimeEST,TemperatureF,Dew PointF,Humidity,Sea Level PressureIn,VisibilityMPH,Wind Direction,Wind SpeedMPH,Gust SpeedMPH,PrecipitationIn,Events,Conditions,WindDirDegrees,DateUTC
12:54 AM,37.0,26.1,65,30.30,10.0,West,3.5,-,N/A,,Overcast,270,2011-12-26 05:54:00
1:54 AM,36.0,27.0,70,30.30,10.0,WSW,4.6,-,N/A,,Overcast,250,2011-12-26 06:54:00
2:54 AM,37.0,26.1,65,30.33,10.0,WSW,6.9,-,N/A,,Overcast,240,2011-12-26 07:54:00
3:54 AM,36.0,26.1,67,30.34,10.0,SW,5.8,-,N/A,,Overcast,230,2011-12-26 08:54:00
4:54 AM,32.0,26.1,79,30.34,10.0,South,5.8,-,N/A,,Partly Cloudy,190,2011-12-26 09:54:00
5:54 AM,28.0,23.0,81,30.34,10.0,SSW,5.8,-,N/A,,Clear,200,2011-12-26 10:54:00
6:54 AM,26.1,21.0,81,30.34,10.0,Calm,Calm,-,N/A,,Clear,0,2011-12-26 11:54:00
7:54 AM,26.1,21.9,84,30.33,10.0,South,5.8,-,N/A,,Clear,170,2011-12-26 12:54:00
8:54 AM,28.0,23.0,81,30.32,10.0,South,3.5,-,N/A,,Clear,180,2011-12-26 13:54:00
9:54 AM,35.1,26.1,70,30.30,10.0,South,8.1,-,N/A,,Clear,180,2011-12-26 14:54:00
10:54 AM,37.4,26.6,65,30.27,10.0,SSW,19.6,25.3,N/A,,Clear,200,2011-12-26 15:54:00
11:54 AM,41.0,26.1,55,30.24,10.0,South,12.7,-,N/A,,Clear,190,2011-12-26 16:54:00
12:54 PM,44.1,26.1,49,30.19,10.0,South,17.3,23.0,N/A,,Clear,170,2011-12-26 17:54:00
1:54 PM,45.0,26.1,48,30.17,10.0,South,16.1,-,N/A,,Clear,190,2011-12-26 18:54:00
2:54 PM,46.0,26.1,46,30.13,10.0,South,8.1,-,N/A,,Clear,190,2011-12-26 19:54:00
3:54 PM,45.0,25.0,46,30.12,10.0,SSW,10.4,-,N/A,,Clear,200,2011-12-26 20:54:00
4:54 PM,43.0,26.1,51,30.11,10.0,SSW,12.7,-,N/A,,Clear,200,2011-12-26 21:54:00
5:54 PM,41.0,27.0,57,30.11,10.0,South,6.9,-,N/A,,Clear,190,2011-12-26 22:54:00
6:54 PM,39.9,28.0,63,30.10,10.0,South,6.9,-,N/A,,Clear,190,2011-12-26 23:54:00
7:54 PM,39.9,28.0,63,30.09,10.0,SSW,12.7,-,N/A,,Clear,210,2011-12-27 00:54:00
8:54 PM,39.0,28.9,67,30.05,10.0,SSW,10.4,-,N/A,,Clear,210,2011-12-27 01:54:00
9:54 PM,37.9,28.9,70,30.01,10.0,SSW,6.9,-,N/A,,Clear,200,2011-12-27 02:54:00
10:54 PM,37.0,28.9,73,29.99,10.0,South,11.5,-,N/A,,Clear,190,2011-12-27 03:54:00
11:54 PM,37.0,28.9,73,29.96,10.0,South,8.1,-,N/A,,Mostly Cloudy,190,2011-12-27 04:54:00